GW1920 Weather Reports


Display with metric or nautical units.
time (UTC)temp
F
wind
direction
speed
MPH
gust
MPH
rain 1hr
in
rain 24hr
in
rain mn
in
humidity
%
barometer
mb
20260831230817 63 335 2.0 2.0 0.00 0.00 0.00 85 1008.0
20260831230312 63 319 1.0 2.0 0.00 0.00 0.00 85 1007.9
20260831225812 63 314 4.0 5.0 0.00 0.00 0.00 85 1008.3
20260831225307 64 343 2.0 2.0 0.00 0.00 0.00 84 1008.0
20260831224802 64 347 0.0 1.0 0.00 0.00 0.00 85 1007.9
20260831224257 64 342 1.0 2.0 0.00 0.00 0.00 84 1008.1
20260831223752 64 349 1.0 1.0 0.00 0.00 0.00 84 1008.1
20260831223248 64 344 0.0 0.0 0.00 0.00 0.00 85 1008.0
20260831222744 64 317 3.0 3.0 0.00 0.00 0.00 84 1008.0
20260831222240 64 340 3.0 3.0 0.00 0.00 0.00 84 1008.0
20260831221735 64 345 1.0 1.0 0.00 0.00 0.00 84 1007.9
20260831221230 64 337 1.0 1.0 0.00 0.00 0.00 84 1008.2
20260831220725 64 349 1.0 1.0 0.00 0.00 0.00 84 1008.2
20260831220220 64 347 1.0 1.0 0.00 0.00 0.00 84 1008.1
20260831215715 64 348 1.0 2.0 0.00 0.00 0.00 84 1008.3
20260831215211 64 354 0.0 0.0 0.00 0.00 0.00 85 1008.1
20260831214708 64 340 0.0 0.0 0.00 0.00 0.00 84 1008.1
20260831214204 64 348 0.0 0.0 0.00 0.00 0.00 84 1008.4
20260831213700 64 334 2.0 2.0 0.00 0.00 0.00 84 1008.3
20260831213156 63 338 2.0 2.0 0.00 0.00 0.00 85 1008.6
20260831212651 63 347 1.0 2.0 0.00 0.00 0.00 86 1008.4
20260831212148 63 310 2.0 2.0 0.00 0.00 0.00 87 1008.5
20260831211647 63 314 3.0 3.0 0.00 0.00 0.00 86 1008.4
20260831211142 64 347 0.0 1.0 0.00 0.00 0.00 86 1008.1
20260831210636 64 337 1.0 1.0 0.00 0.00 0.00 84 1008.5
20260831210133 64 341 0.0 0.0 0.00 0.00 0.00 84 1008.4
20260831205631 64 0 1.0 2.0 0.00 0.00 0.00 84 1008.4
20260831205128 64 333 0.0 0.0 0.00 0.00 0.00 83 1008.2
20260831204627 64 244 2.0 2.0 0.00 0.00 0.00 83 1008.3
20260831204126 64 341 0.0 0.0 0.00 0.00 0.00 83 1008.2
20260831203621 64 43 1.0 1.0 0.00 0.00 0.00 83 1008.2
20260831203120 65 346 0.0 0.0 0.00 0.00 0.00 80 1008.4
20260831202619 65 292 0.0 0.0 0.00 0.00 0.00 82 1008.2
20260831202120 64 339 0.0 0.0 0.00 0.00 0.00 81 1007.9
20260831201619 64 0 0.0 0.0 0.00 0.00 0.00 83 1008.2
20260831201113 64 342 0.0 0.0 0.00 0.00 0.00 82 1008.2
20260831200610 64 3 0.0 0.0 0.00 0.00 0.00 82 1008.4
20260831200104 64 281 1.0 1.0 0.00 0.00 0.00 83 1008.3
20260831195559 64 0 0.0 0.0 0.00 0.00 0.00 82 1008.2
20260831195055 64 343 0.0 0.0 0.00 0.00 0.00 81 1008.5
20260831194550 64 354 0.0 1.0 0.00 0.00 0.00 82 1008.4
20260831194044 64 261 1.0 1.0 0.00 0.00 0.00 82 1008.3
20260831193540 64 338 0.0 0.0 0.00 0.00 0.00 82 1008.4
20260831193039 64 347 0.0 0.0 0.00 0.00 0.00 84 1008.2
20260831192534 64 326 0.0 1.0 0.00 0.00 0.00 83 1008.5
20260831192030 63 20 0.0 0.0 0.00 0.00 0.00 83 1008.4
20260831191526 63 14 0.0 0.0 0.00 0.00 0.00 83 1008.3
20260831191022 63 358 0.0 0.0 0.00 0.00 0.00 84 1008.3
20260831190517 63 4 0.0 0.0 0.00 0.00 0.00 84 1008.3
20260831190015 63 12 0.0 0.0 0.00 0.00 0.00 84 1008.5
20260831185512 63 54 0.0 0.0 0.00 0.00 0.00 85 1008.3
20260831185007 62 353 0.0 0.0 0.00 0.00 0.00 84 1008.3
20260831184501 62 339 0.0 0.0 0.00 0.00 0.00 84 1008.3
20260831183956 62 354 0.0 0.0 0.00 0.00 0.00 84 1008.1
20260831183455 62 25 0.0 1.0 0.00 0.00 0.00 84 1008.2
20260831182955 62 333 0.0 1.0 0.00 0.00 0.00 84 1008.1
20260831182450 62 343 0.0 0.0 0.00 0.00 0.00 84 1008.3
20260831181946 62 312 0.0 1.0 0.00 0.00 0.00 85 1008.2
20260831181441 62 48 0.0 1.0 0.00 0.00 0.00 84 1008.2
20260831180935 62 341 1.0 1.0 0.00 0.00 0.00 84 1008.1
20260831180430 62 7 0.0 0.0 0.00 0.00 0.00 85 1008.1
20260831175929 62 344 0.0 1.0 0.00 0.00 0.00 85 1008.1
20260831175426 61 71 1.0 1.0 0.00 0.00 0.00 85 1007.8
20260831174921 61 0 0.0 0.0 0.00 0.00 0.00 86 1007.9
20260831174416 61 316 2.0 2.0 0.00 0.00 0.00 86 1007.9
20260831173916 61 54 0.0 0.0 0.00 0.00 0.00 86 1007.7
20260831173415 61 38 1.0 1.0 0.00 0.00 0.00 86 1007.9
20260831172911 61 4 0.0 0.0 0.00 0.00 0.00 86 1007.8
20260831172407 60 46 1.0 2.0 0.00 0.00 0.00 86 1008.0
20260831171906 61 352 0.0 0.0 0.00 0.00 0.00 86 1008.0
20260831171403 61 277 0.0 1.0 0.00 0.00 0.00 86 1008.0
20260831170859 60 19 0.0 0.0 0.00 0.00 0.00 86 1008.1
20260831170354 60 354 0.0 0.0 0.00 0.00 0.00 87 1008.1
20260831165851 60 4 0.0 0.0 0.00 0.00 0.00 87 1008.0
20260831165347 60 13 0.0 0.0 0.00 0.00 0.00 88 1007.8
20260831164843 60 324 0.0 0.0 0.00 0.00 0.00 87 1007.9
20260831164339 60 33 0.0 0.0 0.00 0.00 0.00 87 1007.6
20260831163834 60 35 0.0 0.0 0.00 0.00 0.00 88 1007.9
20260831163330 59 3 0.0 0.0 0.00 0.00 0.00 88 1008.0
20260831162828 59 31 0.0 0.0 0.00 0.00 0.00 88 1007.8
20260831162324 59 26 0.0 0.0 0.00 0.00 0.00 88 1007.8
20260831161822 59 52 0.0 0.0 0.00 0.00 0.00 89 1007.8
20260831161319 59 356 0.0 0.0 0.00 0.00 0.00 89 1007.6
20260831160814 59 52 0.0 0.0 0.00 0.00 0.00 89 1008.0
20260831160308 59 357 0.0 0.0 0.00 0.00 0.00 90 1007.7
20260831155803 58 348 1.0 1.0 0.00 0.00 0.00 90 1007.8
20260831155258 58 8 0.0 0.0 0.00 0.00 0.00 91 1007.8
20260831154754 58 62 0.0 0.0 0.00 0.00 0.00 91 1007.6
20260831154250 58 19 0.0 0.0 0.00 0.00 0.00 92 1007.8
20260831153748 58 36 0.0 0.0 0.00 0.00 0.00 91 1007.8
20260831153244 57 39 1.0 1.0 0.00 0.00 0.00 91 1007.7
20260831152740 57 4 0.0 0.0 0.00 0.00 0.00 92 1007.8
20260831152236 57 40 0.0 0.0 0.00 0.00 0.00 92 1007.6
20260831151735 57 29 0.0 0.0 0.00 0.00 0.00 92 1007.4
20260831151230 57 9 0.0 0.0 0.00 0.00 0.00 93 1007.5
20260831150725 57 23 0.0 0.0 0.00 0.00 0.00 92 1007.4
20260831150220 57 45 0.0 1.0 0.00 0.00 0.00 93 1007.3
20260831145719 56 50 0.0 0.0 0.00 0.00 0.00 94 1007.6
20260831145215 56 43 0.0 0.0 0.00 0.00 0.00 94 1007.4
20260831144711 56 46 0.0 0.0 0.00 0.00 0.00 95 1007.6
20260831144207 56 46 0.0 0.0 0.00 0.00 0.00 94 1007.5
20260831143706 56 47 0.0 0.0 0.00 0.00 0.00 94 1007.6
20260831143201 56 39 0.0 0.0 0.00 0.00 0.00 94 1007.5
20260831142657 56 36 0.0 0.0 0.00 0.00 0.00 94 1007.3
20260831142153 56 34 0.0 0.0 0.00 0.00 0.00 95 1007.4
20260831141652 56 45 0.0 0.0 0.00 0.00 0.00 95 1007.4
20260831141147 56 33 0.0 0.0 0.00 0.00 0.00 95 1007.1
20260831140646 56 45 0.0 0.0 0.00 0.00 0.00 96 1007.1
20260831140141 56 32 0.0 0.0 0.00 0.00 0.00 96 1007.1
20260831135639 56 32 0.0 0.0 0.00 0.00 0.00 95 1006.8
20260831135135 56 32 0.0 0.0 0.00 0.00 0.00 95 1007.0
20260831134631 56 29 0.0 0.0 0.00 0.00 0.00 95 1006.9
20260831134126 56 29 0.0 0.0 0.00 0.00 0.00 95 1007.0
20260831133625 56 29 0.0 0.0 0.00 0.00 0.00 95 1006.8
20260831133120 56 29 0.0 0.0 0.00 0.00 0.00 95 1006.9
20260831132616 56 29 0.0 0.0 0.00 0.00 0.00 95 1006.7
20260831132114 55 30 0.0 0.0 0.00 0.00 0.00 95 1007.0
20260831131610 55 33 0.0 0.0 0.00 0.00 0.00 95 1006.8
20260831131106 55 34 0.0 0.0 0.00 0.00 0.00 95 1007.0
20260831130602 55 33 0.0 0.0 0.00 0.00 0.00 95 1006.8
20260831130057 55 45 0.0 0.0 0.00 0.00 0.00 95 1007.0
20260831125555 56 329 0.0 0.0 0.00 0.00 0.00 95 1007.0
20260831125051 55 35 0.0 0.0 0.00 0.00 0.00 95 1007.0
20260831124547 55 37 0.0 0.0 0.00 0.00 0.00 94 1007.0
20260831124042 56 38 0.0 0.0 0.00 0.00 0.00 94 1006.9
20260831123541 55 29 0.0 0.0 0.00 0.00 0.00 94 1006.7
20260831123036 56 31 0.0 0.0 0.00 0.00 0.00 94 1006.9
20260831122531 55 43 0.0 0.0 0.00 0.00 0.00 94 1007.0
20260831122026 55 13 0.0 0.0 0.00 0.00 0.00 94 1007.0
20260831121521 55 20 0.0 0.0 0.00 0.00 0.00 94 1007.2
20260831121018 55 357 0.0 0.0 0.00 0.00 0.00 94 1007.2
20260831120516 55 32 0.0 0.0 0.00 0.00 0.00 94 1007.2
20260831120012 55 32 0.0 0.0 0.00 0.00 0.00 94 1007.2
20260831115508 55 32 0.0 0.0 0.00 0.00 0.00 94 1007.1
20260831115003 55 32 0.0 0.0 0.00 0.00 0.00 94 1007.1
20260831114502 55 35 0.0 0.0 0.00 0.00 0.00 94 1007.1
20260831113957 55 38 0.0 0.0 0.00 0.00 0.00 94 1007.2
20260831113456 55 32 0.0 0.0 0.00 0.00 0.00 94 1007.1
20260831112952 56 31 0.0 0.0 0.00 0.00 0.00 93 1007.1
20260831112452 56 39 0.0 0.0 0.00 0.00 0.00 93 1007.2
20260831111947 55 39 0.0 0.0 0.00 0.00 0.00 93 1007.2
20260831111443 55 35 0.0 0.0 0.00 0.00 0.00 93 1007.1
20260831110938 55 24 0.0 0.0 0.00 0.00 0.00 93 1007.2
20260831110433 55 23 0.0 0.0 0.00 0.00 0.00 93 1007.0
20260831105932 56 48 0.0 0.0 0.00 0.00 0.00 93 1007.0
20260831105428 56 66 0.0 0.0 0.00 0.00 0.00 93 1007.0
20260831104923 55 36 0.0 0.0 0.00 0.00 0.00 93 1007.2
20260831104419 55 48 0.0 0.0 0.00 0.00 0.00 93 1007.1
20260831103915 55 30 0.0 0.0 0.00 0.00 0.00 93 1007.3
20260831103414 55 34 0.0 0.0 0.00 0.00 0.00 93 1007.4
20260831102909 56 43 1.0 1.0 0.00 0.00 0.00 93 1007.4
20260831102404 55 50 0.0 0.0 0.00 0.00 0.00 93 1007.0
20260831101859 55 11 0.0 0.0 0.00 0.00 0.00 93 1007.2
20260831101354 55 18 0.0 0.0 0.00 0.00 0.00 92 1007.2
20260831100851 55 18 0.0 0.0 0.00 0.00 0.00 93 1007.4
20260831100346 55 31 0.0 0.0 0.00 0.00 0.00 93 1007.3
20260831095845 55 5 0.0 0.0 0.00 0.00 0.00 92 1007.1
20260831095339 55 52 0.0 0.0 0.00 0.00 0.00 93 1007.3
20260831094835 55 36 0.0 0.0 0.00 0.00 0.00 92 1007.1
20260831094331 55 67 0.0 0.0 0.00 0.00 0.00 93 1007.5
20260831093826 55 32 0.0 0.0 0.00 0.00 0.00 93 1007.5
20260831093321 55 24 0.0 0.0 0.00 0.00 0.00 92 1007.3
20260831092818 55 14 0.0 0.0 0.00 0.00 0.00 93 1007.4
20260831092313 55 344 0.0 0.0 0.00 0.00 0.00 93 1007.5
20260831091808 56 22 0.0 0.0 0.00 0.00 0.00 93 1007.5
20260831091258 56 14 0.0 0.0 0.00 0.00 0.00 93 1007.5
20260831090753 55 3 0.0 0.0 0.00 0.00 0.00 93 1007.6
20260831090249 55 349 0.0 0.0 0.00 0.00 0.00 93 1007.7
20260831085745 56 351 0.0 0.0 0.00 0.00 0.00 93 1007.7
20260831085239 56 10 0.0 0.0 0.00 0.00 0.00 93 1007.7
20260831084734 56 357 0.0 0.0 0.00 0.00 0.00 93 1007.8
20260831084231 56 345 0.0 0.0 0.00 0.00 0.00 94 1007.8
20260831083726 56 344 0.0 0.0 0.00 0.00 0.00 94 1007.5
20260831083222 56 344 0.0 0.0 0.00 0.00 0.00 94 1007.7
20260831082721 56 344 0.0 0.0 0.00 0.00 0.00 94 1007.7
20260831082216 56 344 0.0 0.0 0.00 0.00 0.00 94 1007.9
20260831081711 56 343 0.0 0.0 0.00 0.00 0.00 94 1008.0
20260831081207 56 343 0.0 0.0 0.00 0.00 0.00 94 1007.7
20260831080702 56 343 0.0 0.0 0.00 0.00 0.00 94 1007.8
20260831080156 56 343 0.0 0.0 0.00 0.00 0.00 93 1007.8
20260831075652 56 13 0.0 0.0 0.00 0.00 0.00 93 1008.0
20260831075148 56 15 0.0 0.0 0.00 0.00 0.00 93 1008.1
20260831074646 56 21 0.0 0.0 0.00 0.00 0.00 93 1008.1
20260831074141 56 16 0.0 0.0 0.00 0.00 0.00 93 1008.0
20260831073636 56 6 0.0 0.0 0.00 0.00 0.00 93 1008.2
20260831073136 56 355 0.0 0.0 0.00 0.00 0.00 93 1007.9
20260831072632 56 350 0.0 0.0 0.00 0.00 0.00 93 1008.2
20260831072128 56 356 0.0 0.0 0.00 0.00 0.00 92 1008.1
20260831071626 56 357 0.0 0.0 0.00 0.00 0.00 92 1008.2
20260831071122 56 356 0.0 0.0 0.00 0.00 0.00 92 1008.3
20260831070621 56 357 0.0 0.0 0.00 0.00 0.00 92 1008.1
20260831070116 56 353 0.0 0.0 0.00 0.00 0.00 92 1008.2
20260831065614 56 23 0.0 0.0 0.00 0.00 0.00 92 1008.4
20260831065108 56 19 0.0 0.0 0.00 0.00 0.00 92 1008.2
20260831064603 56 15 0.0 0.0 0.00 0.00 0.00 92 1008.2
20260831064059 57 17 0.0 0.0 0.00 0.00 0.00 92 1008.4
20260831063554 57 348 0.0 0.0 0.00 0.00 0.00 93 1008.1
20260831063054 57 348 0.0 0.0 0.00 0.00 0.00 92 1008.6
20260831062549 57 348 0.0 0.0 0.00 0.00 0.00 92 1008.4
20260831062049 57 348 0.0 0.0 0.00 0.00 0.00 92 1008.4
20260831061547 57 348 0.0 0.0 0.00 0.00 0.00 92 1008.4
20260831061043 57 348 0.0 0.0 0.00 0.00 0.00 92 1008.4
20260831060538 57 336 0.0 0.0 0.00 0.00 0.00 92 1008.6
20260831060033 57 351 0.0 0.0 0.00 0.00 0.00 92 1008.3
20260831055527 57 2 0.0 0.0 0.00 0.00 0.00 92 1008.5
20260831055024 57 2 0.0 0.0 0.00 0.00 0.00 92 1008.7
20260831054523 57 345 0.0 0.0 0.00 0.00 0.00 92 1008.6
20260831054022 57 345 0.0 0.0 0.00 0.00 0.00 92 1008.9
20260831053521 57 345 0.0 0.0 0.00 0.00 0.00 93 1008.8
20260831053016 57 350 0.0 0.0 0.00 0.00 0.00 92 1008.8
20260831052514 57 350 0.0 0.0 0.00 0.00 0.00 91 1008.8
20260831052009 57 350 0.0 0.0 0.00 0.00 0.00 91 1008.9
20260831051507 57 350 0.0 0.0 0.00 0.00 0.00 92 1008.8
20260831051006 57 350 0.0 0.0 0.00 0.00 0.00 92 1009.1
20260831050506 57 350 0.0 0.0 0.00 0.00 0.00 92 1009.2
20260831050004 57 350 0.0 0.0 0.00 0.00 0.00 92 1008.8
20260831045459 57 10 0.0 0.0 0.00 0.00 0.00 92 1009.3
20260831044954 57 25 0.0 0.0 0.00 0.00 0.00 93 1009.2
20260831044450 57 13 0.0 0.0 0.00 0.00 0.00 93 1009.1
20260831043945 57 2 0.0 0.0 0.00 0.00 0.00 93 1009.1
20260831043444 57 20 0.0 0.0 0.00 0.00 0.00 93 1009.1
20260831042939 57 342 0.0 0.0 0.00 0.00 0.00 93 1009.1
20260831042434 57 355 0.0 0.0 0.00 0.00 0.00 93 1009.2
20260831041933 57 357 0.0 0.0 0.00 0.00 0.00 93 1009.3
20260831041434 57 21 0.0 0.0 0.00 0.00 0.00 93 1008.9
20260831040929 57 20 0.0 0.0 0.00 0.00 0.00 93 1009.3
20260831040424 57 20 0.0 0.0 0.00 0.00 0.00 93 1009.1
20260831035921 57 20 0.0 0.0 0.00 0.00 0.00 93 1009.1
20260831035420 57 20 0.0 0.0 0.00 0.00 0.00 93 1009.1
20260831034915 57 20 0.0 0.0 0.00 0.00 0.00 93 1008.9
20260831034410 57 20 0.0 0.0 0.00 0.00 0.00 93 1009.2
20260831033905 57 20 0.0 0.0 0.00 0.00 0.00 93 1009.1
20260831033401 57 20 0.0 0.0 0.00 0.00 0.00 93 1008.8
20260831032856 57 20 0.0 0.0 0.00 0.00 0.00 92 1008.7
20260831032350 57 20 0.0 0.0 0.00 0.00 0.00 92 1008.9
20260831031846 57 20 0.0 0.0 0.00 0.00 0.00 92 1008.9
20260831031344 57 21 0.0 0.0 0.00 0.00 0.00 92 1008.8
20260831030839 57 20 0.0 0.0 0.00 0.00 0.00 91 1008.8
20260831030338 57 19 0.0 0.0 0.00 0.00 0.00 91 1008.7
20260831025832 57 19 0.0 0.0 0.00 0.00 0.00 91 1008.7
20260831025331 57 18 0.0 0.0 0.00 0.00 0.00 90 1008.8
20260831024827 58 356 0.0 0.0 0.00 0.00 0.00 89 1008.8
20260831024326 58 353 0.0 0.0 0.00 0.00 0.00 89 1008.9
20260831023826 58 350 0.0 0.0 0.00 0.00 0.00 88 1008.7
20260831023324 59 349 0.0 0.0 0.00 0.00 0.00 88 1008.8
20260831022820 59 348 0.0 0.0 0.00 0.00 0.00 87 1008.8
20260831022319 59 353 0.0 0.0 0.00 0.00 0.00 87 1008.6
20260831021814 59 354 0.0 0.0 0.00 0.00 0.00 86 1008.8
20260831021313 59 352 0.0 0.0 0.00 0.00 0.00 87 1008.8
20260831020810 60 327 0.0 0.0 0.00 0.00 0.00 86 1008.6
20260831020309 60 347 0.0 0.0 0.00 0.00 0.00 86 1008.9
20260831015804 60 346 0.0 1.0 0.00 0.00 0.00 85 1008.6
20260831015300 60 343 0.0 0.0 0.00 0.00 0.00 85 1008.6
20260831014800 60 351 0.0 0.0 0.00 0.00 0.00 85 1008.7
20260831014254 61 357 0.0 0.0 0.00 0.00 0.00 85 1008.8
20260831013751 61 352 0.0 0.0 0.00 0.00 0.00 85 1008.9
20260831013250 61 339 0.0 0.0 0.00 0.00 0.00 84 1008.9
20260831012745 61 339 0.0 0.0 0.00 0.00 0.00 85 1008.9
20260831012241 61 338 0.0 0.0 0.00 0.00 0.00 84 1008.6
20260831011740 61 344 1.0 1.0 0.00 0.00 0.00 84 1008.8
20260831011236 61 353 0.0 0.0 0.00 0.00 0.00 84 1008.6
20260831010731 61 344 1.0 1.0 0.00 0.00 0.00 84 1008.7
20260831010231 62 348 1.0 1.0 0.00 0.00 0.00 84 1008.8
20260831005726 62 340 1.0 1.0 0.00 0.00 0.00 84 1008.7
20260831005222 62 339 1.0 2.0 0.00 0.00 0.00 83 1008.8
20260831004717 62 339 2.0 2.0 0.00 0.00 0.00 83 1009.1
20260831004214 62 342 1.0 1.0 0.00 0.00 0.00 83 1008.8
20260831003709 62 343 0.0 1.0 0.00 0.00 0.00 83 1008.6
20260831003205 62 353 0.0 0.0 0.00 0.00 0.00 83 1008.9
20260831002703 62 324 2.0 2.0 0.00 0.00 0.00 83 1009.1
20260831002158 62 338 1.0 1.0 0.00 0.00 0.00 83 1008.8
20260831001654 62 352 0.0 1.0 0.00 0.00 0.00 83 1008.9
20260831001154 63 339 2.0 2.0 0.00 0.00 0.00 82 1008.8
20260831000651 63 351 1.0 1.0 0.00 0.00 0.00 82 1009.1
20260831000146 63 354 1.0 1.0 0.00 0.00 0.00 82 1009.3
20260830235645 63 340 1.0 1.0 0.00 0.00 0.00 83 1009.2
20260830235140 63 347 1.0 2.0 0.00 0.00 0.00 82 1009.2
20260830234635 64 330 1.0 2.0 0.00 0.00 0.00 81 1009.2
20260830234131 64 327 1.0 1.0 0.00 0.00 0.00 81 1009.1
20260830233626 64 331 1.0 2.0 0.00 0.00 0.00 81 1009.1
20260830233122 63 329 2.0 2.0 0.00 0.00 0.00 82 1009.2
20260830232618 64 332 0.0 0.0 0.00 0.00 0.00 80 1008.9
20260830232114 64 327 1.0 1.0 0.00 0.00 0.00 81 1009.2
20260830231609 64 332 2.0 2.0 0.00 0.00 0.00 82 1009.2